NC0S Weather Reports


time (UTC)temp
C
wind
direction
speed
KPH
gust
KPH
rain 1hr
cm
rain 24hr
cm
rain mn
cm
humidity
%
barometer
mb
20260507172028 17 247 1.6 3.2 0.00 0.00 0.00 47 1016.5
20260507171028 17 235 1.6 4.8 0.00 0.00 0.00 50 1016.6
20260507170028 17 273 1.6 6.4 0.00 0.00 0.00 51 1016.6
20260507165108 16 177 1.6 4.8 0.00 0.00 0.00 52 1017.0
20260507164028 17 206 1.6 6.4 0.00 0.00 0.00 52 1017.0
20260507163048 18 235 1.6 6.4 0.00 0.00 0.00 49 1017.1
20260507162028 17 269 1.6 3.2 0.00 0.00 0.00 50 1017.2
20260507161028 17 228 1.6 6.4 0.00 0.00 0.00 51 1017.1
20260507160029 17 209 1.6 6.4 0.00 0.00 0.00 51 1017.2
20260507155028 17 217 0.0 3.2 0.00 0.00 0.00 52 1017.4
20260507154028 16 223 1.6 4.8 0.00 0.00 0.00 52 1017.5
20260507153028 16 218 1.6 4.8 0.00 0.00 0.00 53 1017.6
20260507152029 16 261 1.6 4.8 0.00 0.00 0.00 53 1017.7
20260507151049 16 205 1.6 9.7 0.00 0.00 0.00 53 1017.7
20260507150028 16 229 1.6 4.8 0.00 0.00 0.00 53 1017.6
20260507145028 16 121 1.6 4.8 0.00 0.00 0.00 55 1017.9
20260507144028 16 267 1.6 4.8 0.00 0.00 0.00 54 1017.8
20260507143028 15 0.0 4.8 0.00 0.00 0.00 58 1017.8
20260507142029 15 189 1.6 9.7 0.00 0.00 0.00 57 1017.9
20260507141028 15 208 1.6 3.2 0.00 0.00 0.00 58 1018.0
20260507140028 14 193 0.0 1.6 0.00 0.00 0.00 60 1018.1
20260507135028 13 141 0.0 4.8 0.00 0.00 0.00 59 1018.0
20260507134028 13 252 0.0 3.2 0.00 0.00 0.00 62 1018.0
20260507133028 13 171 0.0 1.6 0.00 0.00 0.00 63 1018.1
20260507132028 12 0.0 1.6 0.00 0.00 0.00 64 1018.0
20260507131028 12 157 0.0 1.6 0.00 0.00 0.00 65 1018.1
20260507130029 11 177 0.0 3.2 0.00 0.00 0.00 66 1018.3
20260507125028 10 0.0 1.6 0.00 0.00 0.00 69 1018.2
20260507124028 9 0.0 1.6 0.00 0.00 0.00 71 1018.1
20260507123028 8 26 0.0 1.6 0.00 0.00 0.00 72 1018.1
20260507122047 8 0.0 0.0 0.00 0.00 0.00 73 1018.1
20260507121048 7 0.0 0.0 0.00 0.00 0.00 74 1018.2
20260507120027 7 0.0 0.0 0.00 0.00 0.00 75 1018.1
20260507115028 6 0.0 0.0 0.00 0.00 0.00 77 1018.0
20260507114028 6 0.0 0.0 0.00 0.00 0.00 78 1018.3
20260507113028 6 0.0 0.0 0.00 0.00 0.00 78 1018.0
20260507112028 6 0.0 0.0 0.00 0.00 0.00 77 1017.9
20260507111028 6 0.0 0.0 0.00 0.00 0.00 75 1017.9
20260507110028 7 0.0 0.0 0.00 0.00 0.00 74 1017.8
20260507105028 7 0.0 0.0 0.00 0.00 0.00 73 1017.8
20260507104028 7 0.0 0.0 0.00 0.00 0.00 72 1017.8
20260507103028 7 0.0 0.0 0.00 0.00 0.00 72 1017.9
20260507102028 7 0.0 0.0 0.00 0.00 0.00 71 1018.0
20260507101028 7 0.0 0.0 0.00 0.00 0.00 71 1017.8
20260507100028 7 0.0 0.0 0.00 0.00 0.00 71 1018.0
20260507095028 7 0.0 0.0 0.00 0.00 0.00 71 1018.0
20260507094028 7 0.0 0.0 0.00 0.00 0.00 70 1018.2
20260507093028 7 0.0 0.0 0.00 0.00 0.00 69 1018.3
20260507092028 7 0.0 0.0 0.00 0.00 0.00 69 1018.3
20260507091028 7 0.0 0.0 0.00 0.00 0.00 68 1018.3
20260507090028 7 0.0 0.0 0.00 0.00 0.00 67 1018.3
20260507085028 7 0.0 0.0 0.00 0.00 0.00 68 1018.1
20260507084028 7 0.0 0.0 0.00 0.00 0.00 67 1018.2
20260507083028 7 0.0 0.0 0.00 0.00 0.00 67 1018.4
20260507082027 7 0.0 0.0 0.00 0.00 0.00 67 1018.4
20260507081028 7 0.0 0.0 0.00 0.00 0.00 69 1018.3
20260507080028 7 0.0 0.0 0.00 0.00 0.00 68 1018.2
20260507075028 7 0.0 0.0 0.00 0.00 0.00 67 1018.3
20260507074029 7 0.0 0.0 0.00 0.00 0.00 67 1018.4
20260507073027 7 0.0 0.0 0.00 0.00 0.00 66 1018.3
20260507072028 7 0.0 0.0 0.00 0.00 0.00 65 1018.4
20260507071108 7 0.0 0.0 0.00 0.00 0.00 64 1018.7
20260507070028 7 0.0 0.0 0.00 0.00 0.00 65 1018.7
20260507065048 8 0.0 0.0 0.00 0.00 0.00 66 1018.8
20260507064028 8 0.0 0.0 0.00 0.03 0.00 67 1018.9
20260507063028 8 0.0 0.0 0.00 0.05 0.00 66 1018.9
20260507062028 8 0.0 0.0 0.00 0.05 0.00 63 1018.9
20260507061028 8 0.0 0.0 0.00 0.05 0.00 64 1019.0
20260507060028 8 0.0 0.0 0.00 0.05 0.00 65 1018.8
20260507055028 7 0.0 0.0 0.00 0.05 0.00 69 1018.9
20260507054028 7 0.0 0.0 0.00 0.05 0.00 70 1019.0
20260507053028 7 0.0 0.0 0.00 0.05 0.00 71 1018.9
20260507052028 6 0.0 0.0 0.00 0.05 0.00 72 1019.0
20260507051028 6 0.0 0.0 0.00 0.05 0.00 75 1018.9
20260507050028 6 0.0 0.0 0.00 0.05 0.00 77 1019.1
20260507045028 6 0.0 0.0 0.00 0.05 0.05 74 1019.1
20260507044028 6 0.0 0.0 0.00 0.05 0.05 74 1019.1
20260507043048 6 0.0 0.0 0.00 0.05 0.05 74 1019.0
20260507042028 6 0.0 0.0 0.00 0.05 0.05 71 1018.9
20260507041028 6 0.0 0.0 0.00 0.05 0.05 71 1019.0
20260507040028 6 0.0 0.0 0.00 0.05 0.05 70 1019.2
20260507035028 6 0.0 0.0 0.00 0.05 0.05 69 1019.3
20260507034028 7 0.0 0.0 0.00 0.05 0.05 66 1019.2
20260507033028 7 0.0 0.0 0.00 0.05 0.05 67 1019.1
20260507032028 7 0.0 0.0 0.00 0.05 0.05 65 1019.1
20260507031028 7 0.0 0.0 0.00 0.05 0.05 65 1019.0
20260507030028 7 0.0 0.0 0.00 0.05 0.05 65 1019.1
20260507025028 7 0.0 0.0 0.00 0.05 0.05 63 1019.0
20260507024028 8 0.0 0.0 0.00 0.05 0.05 61 1019.0
20260507023028 8 0.0 0.0 0.00 0.05 0.05 61 1018.9
20260507022028 8 0.0 0.0 0.00 0.05 0.05 57 1018.9
20260507021029 9 0.0 0.0 0.00 0.05 0.05 54 1018.7
20260507020027 10 0.0 0.0 0.00 0.05 0.05 53 1018.7
20260507015028 10 0.0 0.0 0.00 0.05 0.05 48 1018.6
20260507014029 11 0.0 0.0 0.00 0.05 0.05 45 1018.5
20260507013048 11 0.0 0.0 0.00 0.05 0.05 43 1018.4
20260507012028 12 0.0 0.0 0.00 0.05 0.05 40 1018.3
20260507011028 12 33 0.0 1.6 0.00 0.05 0.05 38 1018.3
20260507010028 13 35 0.0 3.2 0.00 0.05 0.05 36 1018.2
20260507005028 13 36 1.6 4.8 0.00 0.05 0.05 36 1018.2
20260507004028 13 0.0 1.6 0.00 0.05 0.05 38 1018.2
20260507003028 13 0.0 0.0 0.00 0.05 0.05 36 1018.1
20260507002028 13 330 0.0 3.2 0.00 0.05 0.05 33 1018.2
20260507001028 13 306 1.6 4.8 0.00 0.05 0.05 34 1018.0
20260507000028 14 40 1.6 4.8 0.00 0.05 0.05 33 1018.1
20260506235028 14 59 0.0 3.2 0.00 0.05 0.05 33 1018.2
20260506234028 14 36 1.6 6.4 0.00 0.05 0.05 33 1018.3
20260506233029 14 15 0.0 4.8 0.00 0.05 0.05 33 1018.0
20260506232028 14 350 0.0 3.2 0.00 0.05 0.05 34 1018.1
20260506231028 15 23 3.2 9.7 0.00 0.05 0.05 32 1018.1
20260506230028 15 37 1.6 6.4 0.00 0.05 0.05 33 1018.0
20260506225029 15 26 1.6 1.6 0.00 0.05 0.05 35 1018.1
20260506224028 15 91 1.6 6.4 0.00 0.05 0.05 33 1018.1
20260506223028 15 5 3.2 9.7 0.00 0.05 0.05 34 1018.2
20260506222028 15 347 0.0 6.4 0.00 0.05 0.05 34 1018.2
20260506221028 15 16 3.2 9.7 0.00 0.05 0.05 33 1018.3
20260506220028 15 313 1.6 9.7 0.00 0.05 0.05 33 1018.4
20260506215028 15 254 1.6 4.8 0.00 0.05 0.05 34 1018.4
20260506214048 15 19 3.2 6.4 0.00 0.05 0.05 34 1018.5
20260506213028 15 36 3.2 11.3 0.00 0.05 0.05 34 1018.7
20260506212028 15 2 1.6 4.8 0.00 0.05 0.05 35 1018.6
20260506211048 15 357 3.2 6.4 0.00 0.05 0.05 32 1018.7
20260506210028 15 12 3.2 11.3 0.00 0.05 0.05 33 1018.9
20260506205028 15 19 1.6 11.3 0.00 0.05 0.05 33 1019.1
20260506204028 15 37 3.2 9.7 0.00 0.05 0.05 34 1019.2
20260506203028 15 6 1.6 9.7 0.00 0.05 0.05 34 1019.3
20260506202048 15 355 1.6 6.4 0.00 0.05 0.05 34 1019.4
20260506201028 14 4 0.0 3.2 0.00 0.05 0.05 34 1019.4
20260506200028 14 9 0.0 4.8 0.00 0.05 0.05 33 1019.5
20260506195028 14 347 1.6 6.4 0.00 0.05 0.05 32 1019.6
20260506194028 14 23 1.6 4.8 0.00 0.05 0.05 33 1019.6
20260506193028 14 16 1.6 4.8 0.00 0.05 0.05 35 1019.8
20260506192028 14 38 3.2 9.7 0.00 0.08 0.05 34 1019.7
20260506191028 14 351 1.6 6.4 0.00 0.08 0.05 37 1019.7
20260506190028 14 22 3.2 11.3 0.00 0.08 0.05 34 1019.8
20260506185028 14 10 3.2 11.3 0.00 0.08 0.05 31 1019.9
20260506184048 14 75 0.0 6.4 0.00 0.08 0.05 35 1020.0
20260506183029 13 331 0.0 3.2 0.00 0.08 0.05 37 1020.1
20260506182028 13 324 1.6 4.8 0.00 0.08 0.05 35 1020.1
20260506181029 13 14 1.6 3.2 0.00 0.08 0.05 38 1020.2
20260506180028 13 350 0.0 3.2 0.00 0.08 0.05 39 1020.2
20260506175029 13 42 0.0 3.2 0.00 0.08 0.05 37 1020.3
20260506174028 13 353 1.6 9.7 0.00 0.08 0.05 36 1020.3
20260506173048 13 47 3.2 9.7 0.00 0.08 0.05 36 1020.5